Location: Colebrook
(42.0017°N, 73.0973°W)
Time: 04:06:43
(UTC-04:00)

S-56A Canister/Altair - All Passes

Search period start: 21 October 2021 00:00
Search period end: 31 October 2021 00:00
Orbit: 632 x 2501 km, 38.9° (Epoch: 20 October)

Date Brightness Start Highest point End Pass type
(mag) Time Alt. Az. Time Alt. Az. Time Alt. Az.
21 Oct - 12:39:32 10° SSW 12:47:47 32° SE 12:58:49 10° E daylight
21 Oct - 14:41:14 10° WSW 14:52:08 66° SSE 15:06:45 10° E daylight
21 Oct - 16:45:30 10° W 16:58:31 79° S 17:13:48 10° E daylight
21 Oct - 18:51:00 10° W 19:05:12 63° SSW 19:19:24 10° SE visible
21 Oct - 20:58:01 10° W 21:10:25 33° SW 21:21:41 10° SSE visible
22 Oct - 12:07:33 10° S 12:14:58 28° SE 12:24:47 10° E daylight
22 Oct - 14:08:39 10° SW 14:18:53 62° SSE 14:33:00 10° E daylight
22 Oct - 16:12:33 10° W 16:24:57 79° S 16:40:15 10° E daylight
22 Oct - 18:17:47 10° W 18:31:39 66° SSW 18:46:16 10° ESE visible
22 Oct - 20:24:19 10° W 20:37:11 36° SW 20:49:12 10° SSE visible
23 Oct - 11:35:45 10° S 11:42:15 23° SE 11:50:39 10° E daylight
23 Oct - 13:36:10 10° SW 13:45:42 58° SSE 13:59:13 10° E daylight
23 Oct - 15:39:43 10° W 15:51:27 78° S 16:06:36 10° E daylight
23 Oct - 17:44:38 10° W 17:58:06 69° SSW 18:13:00 10° ESE daylight
23 Oct - 19:50:46 10° W 20:03:52 40° SW 20:16:35 10° SSE visible
23 Oct - 22:02:11 10° WSW 22:07:43 13° SW 22:13:02 10° SSW visible
24 Oct - 11:04:12 10° S 11:09:36 18° SE 11:16:20 10° E daylight
24 Oct - 13:03:46 10° SW 13:12:38 53° SSE 13:25:24 10° E daylight
24 Oct - 15:06:56 10° WSW 15:18:01 77° S 15:32:54 10° E daylight
24 Oct - 17:11:35 10° W 17:24:32 71° SSW 17:39:38 10° ESE daylight
24 Oct - 19:17:20 10° W 19:30:30 44° SW 19:43:48 10° SSE visible
24 Oct - 21:27:03 10° W 21:34:43 16° SW 21:42:04 10° SSW visible
25 Oct - 10:33:04 10° SSE 10:37:03 14° SE 10:41:42 10° E daylight
25 Oct - 12:31:28 10° SW 12:39:40 47° SSE 12:51:35 10° E daylight
25 Oct - 14:34:16 10° WSW 14:44:39 76° S 14:59:10 10° E daylight
25 Oct - 16:38:37 10° W 16:51:00 73° SSW 17:06:10 10° ESE daylight
25 Oct - 18:44:01 10° W 18:57:06 47° SSW 19:10:53 10° SE visible
25 Oct - 20:52:34 10° W 21:01:38 19° SW 21:10:27 10° SSW visible
26 Oct - 10:03:31 10° SE 10:04:32 10° SE 10:05:36 10° ESE daylight
26 Oct - 11:59:15 10° SSW 12:06:49 42° SE 12:17:45 10° E daylight
26 Oct - 14:01:40 10° WSW 14:11:22 73° SSE 14:25:23 10° E daylight
26 Oct - 16:05:45 10° W 16:17:31 75° S 16:32:36 10° ESE daylight
26 Oct - 18:10:50 10° W 18:23:40 51° SSW 18:37:51 10° SE visible
26 Oct - 20:18:29 10° W 20:28:30 22° SW 20:38:27 10° S visible
27 Oct - 11:27:09 10° SSW 11:34:03 36° SE 11:43:55 10° E daylight
27 Oct - 13:29:08 10° WSW 13:38:12 70° SSE 13:51:37 10° E daylight
27 Oct - 15:32:58 10° W 15:44:05 76° S 15:58:58 10° ESE daylight
27 Oct - 17:37:45 10° W 17:50:14 54° SSW 18:04:41 10° SE daylight
27 Oct - 19:44:40 10° W 19:55:19 25° SW 20:06:12 10° S visible
28 Oct - 10:55:09 10° SSW 11:01:23 31° SE 11:10:05 10° E daylight
28 Oct - 12:56:42 10° WSW 13:05:07 67° SSE 13:17:49 10° E daylight
28 Oct - 15:00:15 10° W 15:10:43 77° S 15:25:16 10° ESE daylight
28 Oct - 17:04:45 10° W 17:16:47 57° SSW 17:31:23 10° SE daylight
28 Oct - 19:11:04 10° W 19:22:05 28° SW 19:33:43 10° S visible
29 Oct - 10:23:17 10° S 10:28:48 25° SE 10:36:13 10° E daylight
29 Oct - 12:24:18 10° WSW 12:32:08 62° SSE 12:44:03 10° E daylight
29 Oct - 14:27:36 10° W 14:37:24 77° S 14:51:32 10° E daylight
29 Oct - 16:31:51 10° W 16:43:23 60° SSW 16:58:00 10° SE daylight
29 Oct - 18:37:39 10° W 18:48:48 31° SW 19:01:03 10° SSE visible
30 Oct - 09:51:35 10° S 09:56:16 20° SE 10:02:18 10° E daylight
30 Oct - 11:51:59 10° SW 11:59:15 57° SSE 12:10:18 10° E daylight
30 Oct - 13:55:01 10° W 14:04:11 77° S 14:17:45 10° E daylight
30 Oct - 15:59:02 10° W 16:10:01 62° SSW 16:24:31 10° SE daylight
30 Oct - 18:04:23 10° W 18:15:31 34° SW 18:28:13 10° SSE visible
